EHI
0 0 0 0 0 0 0 0 0 0 0 0 0 0 0 0 0 0 0 0 0 0 0 0 0 0 0 0 0 0 0 0 0 0 0 0 0 0 0 0 0 0 0
0 0 0 0 0 0 0 0 0 0 0 0 0 0 0 0 0 0 0 0 0 0 0 0 0 0 0 0 0 0 0 0 0 0 0 0 0 0 0 0 0 0 0
0 0 0 0 0 0 0 0 0 0 0 0 0 0 0 0 0 0 0 0 0 0 0 0 0 0 0 0 0 0 0 0 0 0 0 0 0 0 0 0 0 0 0
0 0 0 0 0 0 0 0 0 0 0 0 0 0 0 0 0 0 0 0 0 0 0 0 0 0 0 0 0 0 0 0 0 0 0 0 0 0 0 0 0 0 0
0 0 0 0 0 0 0 0 0 0 0 0 0 0 0 0 0 0 0 0 0 0 0 0 0 0 0 0 0 0 0 0 0 0 0 0 0 0 0 0 0 0 0
0 0 0 0 0 0 0 0 0 0 0 0 0 0 0 0 0 0 0 0 0 0 0 0 0 0 0 0 0 0 0 0 0 0 0 0 0 0 0 0 0 0 0
0 0 0 0 0 0 0 0 0 0 0 0 0 0 0 0 0 0 0 0 0 0 0 0 0 0 0 0 0 0 0 0 0 0 0 0 0 0 0 0 0 0 0
0 0 0 0 0 0 0 0 0 0 0 0 0 0 0 0 0 0 0 0 0 0 0 0 0 0 0 0 0 0 0 0 0 0 0 0 0 0 0 0 0 0 0
0 0 0 0 0 0 0 0 0 0 0 0 0 0 0 0 0 0 0 0 0 0 0 0 0 0 0 0 0 0 0 0 0 0 0 0 0 0 0 0 0 0 0
0 0 0 0 0 0 0 0 0 0 0 0 0 0 0 0 0 0 0 0 0 0 0 0 0 0 0 0 0 0 0 0 0 0 0 0 0 0 0 0 0 0 0
0 0 0 0 0 0 0 0 0 0 0 0 0 0 0 0 0 0 0 0 0 0 0 0 0 0 0 0 0 0 0 0 0 0 0 0 0 0 0 0 0 0 0
0 0 0 0 0 0 0 0 0 0 0 0 0 0 0 0 0 0 0 0 0 0 0 0 0 0 0 0 0 0 0 0 0 0 0 0 0 0 0 0 0 0 0
0 0 0 0 0 0 0 0 0 0 0 0 0 0 0 0 0 0 0 0 0 0 0 0 0 0 0 0 0 0 0 0 0 0 0 0 0 0 0 0 0 0 0
0 0 0 0 0 0 0 0 0 0 0 0 0 0 0 0 0 0 0 0 0 0 0 0 0 0 0 0 0 0 0 0 0 0 0 0 0 0 0 0 0 0 0
0 0 0 0 0 0 0 0 0 0 0 0 0 0 0 0 0 0 0 0 0 0 0 0 0 0 0 0 0 0 0 0 0 0 0 0 0 0 0 0 0 0 0
0 0 0 0 0 0 0 0 0 0 0 0 0 0 0 0 0 0 0 0 0 0 0 0 0 0 0 0 0 0 0 0 0 0 0 0 0 0 0 0 0 0 0
0 0 0 0 0 0 0 0 0 0 0 0 0 0 0 0 0 0 0 0 0 0 0 0 0 0 0 0 0 0 0 0 0 0 0 0 0 0 0 0 0 0 0
0 0 0 0 0 0 0 0 0 0 0 0 0 0 0 0 0 0 0 0 0 0 0 0 0 0 0 0 0 0 0 0 0 0 0 0 0 0 0 0 0 0 0
0 0 0 0 0 0 0 0 0 0 0 0 0 0 0 0 0 0 0 0 0 0 0 0 0 0 0 0 0 0 0 0 0 0 0 0 0 0 0 0 0 0 0
0 0 0 0 0 0 0 0 0 0 0 0 0 0 0 0 0 0 0 0 0 0 0 0 0 0 0 0 0 0 0 0 0 0 0 0 0 0 0 0 0 0 0
0 0 0 0 0 0 0 0 0 0 0 0 0 0 0 0 0 0 0 0 0 0 0 0 0 0 0 0 0 0 0 0 0 0 0 0 0 0 0 0 0 0 0
0 0 0 0 0 0 0 0 0 0 0 0 0 0 0 0 0 0 0 0 0 0 0 0 0 0 0 0 0 0 0 0 0 0 0 0 0 0 0 0 0 0 0
0 0 0 0 0 0 0 0 0 0 0 0 0 0 0 0 0 0 0 0 0 0 0 0 0 0 0 0 0 0 0 0 0 0 0 0 0 0 0 0 0 0 0
0 0 0 0 0 0 0 0 0 0 0 0 0 0 0 0 0 0 0 0 0 0 0 0 0 0 0 0 0 0 0 0 0 0 0 0 0 0 0 0 0 0 0
0 0 0 0 0 0 0 0 0 0 0 0 0 0 0 0 0 0 0 0 0 0 0 0 0 0 0 0 0 0 0 0 0 0 0 0 0 0 0 0 0 0 0
0 0 0 0 0 0 0 0 0 0 0 0 0 0 0 0 0 0 0 0 0 0 0 0 0 0 0 0 0 0 0 0 0 0 0 0 0 0 0 0 0 0 0
Wind_Speed
5 5 4 4 5 4 4 4 4 4 5 5 4 4 4 4 4 4 3 9 11 11 12 11 11 10 10 10 9 9 9 9 9 9 9 9 9 9 9 9 9 10 10
6 6 6 6 6 5 5 5 6 5 5 4 5 5 5 5 5 5 4 6 10 11 12 13 12 12 11 11 10 10 10 9 9 9 9 9 8 8 8 8 8 8 8
7 7 7 7 7 6 6 5 6 5 4 4 5 6 4 5 6 6 6 4 5 10 13 14 14 13 13 13 12 11 11 10 10 9 9 8 8 7 7 7 7 7 7
8 7 7 7 7 6 6 6 5 5 5 5 4 4 4 4 6 6 6 5 5 5 9 14 14 15 15 14 14 13 12 11 10 10 9 8 8 7 6 6 6 5 5
8 7 6 6 6 6 6 6 6 5 5 5 5 4 4 4 5 7 7 7 6 6 5 10 13 14 14 15 15 14 13 12 11 11 10 9 8 7 6 6 5 4 3
7 7 6 6 6 5 6 5 6 6 5 5 5 5 4 4 4 5 7 7 7 7 7 6 6 8 13 15 16 15 14 13 13 12 11 10 9 8 7 6 5 4 3
6 6 6 6 6 7 8 8 6 6 6 3 3 2 3 3 5 5 5 6 8 8 7 7 6 5 6 13 16 16 15 14 14 13 12 11 10 9 8 7 6 5 4
7 6 7 6 6 6 8 8 7 5 5 5 5 3 3 4 5 6 5 7 8 7 8 9 7 7 6 4 8 15 16 15 15 14 13 12 11 10 9 8 7 6 6
6 7 7 7 7 7 7 8 8 9 7 6 5 5 5 7 4 3 6 7 7 7 7 7 8 8 8 6 6 11 13 14 15 14 13 12 11 11 10 9 8 8 7
5 6 7 8 8 7 8 8 9 8 8 6 5 5 4 4 4 3 3 4 6 8 8 8 9 9 9 7 9 13 13 13 15 15 14 13 12 11 11 10 9 8 8
4 5 6 6 7 7 8 8 8 9 8 8 6 4 5 3 3 3 5 3 3 5 7 9 8 9 10 9 8 12 16 17 16 15 14 13 12 11 10 10 9 9 9
3 4 4 5 6 6 7 8 8 8 8 9 7 6 6 5 6 7 9 6 5 4 5 6 8 8 8 9 11 16 17 18 17 15 14 13 12 10 10 9 10 10 11
3 5 4 4 4 5 6 6 6 7 8 8 9 8 8 8 4 5 7 6 5 3 2 3 5 6 7 7 8 17 17 17 15 14 13 12 10 8 8 9 10 12 12
3 5 5 4 5 5 5 4 4 5 5 7 8 8 7 8 6 6 5 5 4 3 3 3 1 2 4 6 9 16 11 17 15 14 13 12 9 7 7 10 12 13 14
4 5 5 5 5 5 4 4 3 3 3 4 5 6 5 4 5 5 4 5 5 5 6 4 2 1 2 4 11 8 8 15 16 15 14 11 8 8 9 12 14 15 15
5 6 6 6 6 6 5 4 3 3 2 2 2 2 1 1 1 1 2 3 4 5 4 3 2 1 2 4 11 7 7 16 17 16 14 12 11 12 12 14 15 15 16
6 6 6 6 7 7 7 6 5 5 5 4 4 3 3 3 2 1 1 0 1 2 4 1 2 1 2 4 5 5 5 5 5 12 12 12 12 13 14 15 15 16 16
6 6 7 7 8 8 8 7 7 7 7 6 6 5 5 4 4 3 2 2 1 1 1 2 2 2 1 3 4 5 4 4 3 7 10 11 12 13 14 15 15 15 16
6 7 8 8 8 8 8 8 8 8 8 7 7 6 5 5 4 3 3 3 2 2 2 2 2 2 1 2 3 2 3 2 3 4 8 10 12 13 14 15 15 15 15
7 8 8 8 8 8 8 8 8 8 8 8 8 7 6 5 4 4 4 4 3 3 3 2 2 2 2 2 2 2 2 1 1 2 4 6 9 12 13 14 14 14 14
8 7 8 8 8 7 8 8 8 8 8 8 9 8 8 9 8 5 4 4 3 3 3 3 2 2 2 2 1 1 1 1 1 1 2 3 3 3 5 10 13 14 15
7 8 8 8 9 8 13 14 10 8 8 8 8 7 8 9 11 11 11 9 7 4 3 2 2 2 2 2 1 1 1 1 1 1 1 3 3 5 5 5 12 15 15
7 8 8 8 8 10 15 14 14 8 7 7 6 6 6 7 9 6 9 11 10 11 8 3 2 2 1 1 2 1 1 2 3 2 1 3 3 5 5 7 14 14 14
6 6 6 6 6 8 13 13 12 7 6 6 5 5 5 5 4 5 5 6 5 5 5 3 2 1 1 2 3 3 3 2 2 3 3 3 3 4 5 5 12 13 12
5 4 4 5 5 6 10 11 9 4 4 5 4 4 4 4 7 9 5 4 5 4 6 6 4 3 3 3 3 2 1 1 2 2 2 2 3 3 4 3 5 6 6
3 3 3 3 3 4 7 9 7 3 3 3 3 4 6 5 7 7 3 2 3 3 3 4 5 6 5 5 6 1 3 3 2 3 2 2 2 2 5 3 2 3 4
Wind_Direction
192 194 200 201 201 196 196 202 212 221 230 239 242 233 214 199 194 192 196 188 180 178 179 179 177 174 170 165 159 153 148 142 137 131 124 117 112 107 100 94 90 87 83
194 193 200 203 206 205 204 205 210 217 224 223 231 227 213 198 199 196 199 197 190 185 187 189 189 186 182 178 173 167 162 157 151 145 138 131 125 118 111 103 96 90 85
201 196 200 206 208 206 206 208 214 218 227 224 229 225 212 201 198 200 199 199 197 196 194 197 197 195 192 188 183 178 174 169 164 159 152 147 141 135 126 118 109 99 91
206 203 207 211 204 201 204 208 210 213 223 221 223 224 214 203 203 205 203 202 199 200 204 204 203 202 200 197 192 187 183 180 177 173 167 162 159 154 147 138 128 118 103
207 207 216 215 199 202 207 211 210 204 213 218 220 224 221 212 207 207 208 207 206 202 201 210 206 205 205 205 201 197 192 189 187 186 181 177 176 173 168 163 157 151 138
211 210 220 220 206 210 214 211 210 206 208 207 213 223 228 228 218 213 211 210 210 208 203 204 202 207 204 207 209 205 200 197 196 195 194 192 190 190 190 190 191 192 192
217 213 222 220 215 221 224 216 211 211 217 180 179 241 272 245 235 228 215 212 214 211 205 204 196 193 203 209 212 211 208 205 204 203 202 202 201 202 207 211 214 218 226
230 225 223 225 220 223 227 222 213 213 211 181 176 182 262 287 254 228 211 216 217 209 210 207 200 195 192 194 210 212 214 212 210 208 208 210 212 214 219 224 228 234 242
246 238 235 232 228 222 227 225 216 215 221 207 191 173 190 228 252 265 229 222 212 208 211 205 204 201 197 193 199 212 213 218 217 215 214 216 219 223 225 230 236 244 252
265 255 248 242 239 233 230 229 222 218 216 214 212 221 211 181 190 255 265 234 217 213 210 208 206 204 200 195 200 202 204 210 218 223 222 223 224 228 233 237 244 253 261
287 276 264 255 250 244 240 236 229 222 218 218 204 197 216 224 211 213 254 251 238 224 210 208 205 204 202 197 194 199 201 207 217 225 229 231 232 235 240 246 254 263 268
301 300 291 275 263 256 250 245 239 232 228 227 219 201 193 195 202 208 232 235 233 232 217 210 209 205 200 196 195 195 199 207 217 225 232 236 240 244 252 261 267 273 276
311 309 306 293 281 270 264 257 249 245 237 232 228 223 221 226 211 208 225 234 233 233 229 224 216 201 197 190 191 188 196 203 212 223 232 242 248 257 272 279 281 282 283
305 311 313 307 300 294 287 276 263 257 249 244 240 235 231 231 224 215 213 211 229 240 241 243 285 220 191 177 181 177 189 195 203 218 228 238 247 254 267 274 278 281 282
332 340 341 341 338 332 323 309 291 282 268 258 256 249 243 241 232 229 219 205 211 229 234 212 199 217 183 165 174 169 167 193 201 211 221 230 241 250 258 266 270 273 277
358 1 5 4 2 0 355 353 348 340 342 339 327 311 292 310 284 250 237 229 219 229 237 180 170 141 169 168 174 162 175 191 204 210 219 228 239 248 256 262 265 270 273
15 16 15 19 20 17 14 19 22 20 28 25 22 35 36 33 29 22 17 263 232 211 230 161 108 104 136 158 153 142 155 176 201 216 226 235 243 251 257 262 266 269 271
25 27 29 33 31 28 24 28 32 34 38 39 35 44 41 43 45 33 36 34 28 48 173 177 128 122 131 155 138 145 154 166 177 219 234 245 253 259 263 266 268 269 270
34 36 38 39 34 31 30 32 39 42 42 42 41 43 36 42 43 35 41 42 32 35 57 116 119 105 104 134 128 136 153 146 186 225 245 257 262 267 269 269 270 271 272
43 40 41 41 40 39 37 36 42 48 48 45 44 44 39 39 44 43 44 42 41 45 55 83 95 102 105 103 116 130 147 147 202 233 254 262 267 272 276 278 279 279 279
48 44 45 42 39 43 44 46 46 51 50 49 45 41 40 46 53 59 63 53 49 50 53 59 66 72 83 97 116 124 150 123 223 235 250 262 272 272 278 280 280 278 274
51 51 49 46 45 48 53 57 60 52 49 47 43 36 34 36 43 50 59 60 58 57 49 45 48 60 67 72 90 111 118 116 268 238 214 258 248 261 259 248 264 267 265
53 53 48 46 47 51 56 59 63 61 55 48 43 38 38 35 39 35 41 43 42 45 49 60 62 55 57 94 122 116 155 184 222 236 225 272 247 259 258 263 271 270 268
57 55 49 42 40 51 60 64 67 57 52 44 41 40 37 18 26 47 41 35 28 21 30 60 107 155 176 182 172 177 192 213 253 247 198 260 270 261 268 264 276 274 268
66 56 49 43 38 35 57 65 66 48 46 30 21 25 29 7 20 41 44 29 19 5 19 30 29 346 311 290 241 164 173 196 292 276 211 229 280 294 284 279 286 280 275
85 75 55 36 29 14 46 61 67 54 42 19 8 4 6 10 12 26 55 35 3 332 347 355 357 351 348 332 324 246 180 182 215 278 265 224 274 327 313 291 265 270 280